Year,Month,Day,Hour,Minute,Value (Times are PST for temperature in C)
2003,03,26,07,04,6.20
2003,03,26,07,05,6.10
2003,03,26,07,06,6.10
2003,03,26,07,07,6.00
2003,03,26,07,08,5.90
2003,03,26,07,09,5.90
2003,03,26,07,10,5.90
2003,03,26,07,11,5.90
2003,03,26,07,12,5.90
2003,03,26,07,13,5.90
2003,03,26,07,14,5.90
2003,03,26,07,15,5.90
2003,03,26,07,16,5.80
2003,03,26,07,17,5.90
2003,03,26,07,18,5.90
2003,03,26,07,19,5.90
2003,03,26,07,20,5.90
2003,03,26,07,21,5.90
2003,03,26,07,22,5.80
2003,03,26,07,23,5.80
2003,03,26,07,24,5.80
2003,03,26,07,25,5.80
2003,03,26,07,26,5.80
2003,03,26,07,27,5.80
2003,03,26,07,28,5.80
2003,03,26,07,29,5.90
2003,03,26,07,30,5.90
2003,03,26,07,31,6.10
2003,03,26,07,32,6.10
2003,03,26,07,33,6.20
2003,03,26,07,34,6.20
2003,03,26,07,35,6.30
2003,03,26,07,36,6.40
2003,03,26,07,37,6.30
2003,03,26,07,38,6.30
2003,03,26,07,39,6.40
2003,03,26,07,40,6.40
2003,03,26,07,41,6.50
2003,03,26,07,42,6.60
2003,03,26,07,43,6.60
2003,03,26,07,44,6.60
2003,03,26,07,45,6.70
2003,03,26,07,46,6.70
2003,03,26,07,47,6.80
2003,03,26,07,48,6.80
2003,03,26,07,49,6.90
2003,03,26,07,50,7.00
2003,03,26,07,51,7.10
2003,03,26,07,52,7.10
2003,03,26,07,53,7.10
2003,03,26,07,54,7.10
2003,03,26,07,55,7.20
2003,03,26,07,56,7.20
2003,03,26,07,57,7.40
2003,03,26,07,58,7.50
2003,03,26,07,59,7.60
2003,03,26,08,00,7.60
2003,03,26,08,01,7.60
2003,03,26,08,02,7.70
2003,03,26,08,03,7.60
2003,03,26,08,04,7.50
2003,03,26,08,05,7.40
2003,03,26,08,06,7.30
2003,03,26,08,07,7.30
2003,03,26,08,08,7.30
2003,03,26,08,09,7.30
2003,03,26,08,10,7.30
2003,03,26,08,11,7.30
2003,03,26,08,12,7.20
2003,03,26,08,13,7.20
2003,03,26,08,14,7.20
2003,03,26,08,15,7.10
2003,03,26,08,16,7.00
2003,03,26,08,17,6.80
2003,03,26,08,18,6.80
2003,03,26,08,19,6.90
2003,03,26,08,20,6.90
2003,03,26,08,21,7.00
2003,03,26,08,22,7.10
2003,03,26,08,23,7.00
2003,03,26,08,24,7.00
2003,03,26,08,25,7.00
2003,03,26,08,26,7.10
2003,03,26,08,27,7.20
2003,03,26,08,28,7.20
2003,03,26,08,29,7.30
2003,03,26,08,30,7.20
2003,03,26,08,31,7.30
2003,03,26,08,32,7.40
2003,03,26,08,33,7.40
2003,03,26,08,34,7.40
2003,03,26,08,35,7.40
2003,03,26,08,36,7.40
2003,03,26,08,37,7.40
2003,03,26,08,38,7.50
2003,03,26,08,39,7.50
2003,03,26,08,40,7.50
2003,03,26,08,41,7.50
2003,03,26,08,42,7.40
2003,03,26,08,43,7.30
2003,03,26,08,44,7.30
2003,03,26,08,45,7.30
2003,03,26,08,46,7.40
2003,03,26,08,47,7.60
2003,03,26,08,48,7.70
2003,03,26,08,49,7.80
2003,03,26,08,50,8.00
2003,03,26,08,51,8.00
2003,03,26,08,52,8.20
2003,03,26,08,53,8.20
2003,03,26,08,54,8.20
2003,03,26,08,55,8.10
2003,03,26,08,56,8.10
2003,03,26,08,57,8.10
2003,03,26,08,58,8.00
2003,03,26,08,59,8.00
2003,03,26,09,00,7.90
2003,03,26,09,01,7.80
2003,03,26,09,02,7.80
2003,03,26,09,03,7.80
2003,03,26,09,04,7.80
2003,03,26,09,05,7.80
2003,03,26,09,06,7.80
2003,03,26,09,07,7.80
2003,03,26,09,08,7.80
2003,03,26,09,09,7.90
2003,03,26,09,10,8.00
2003,03,26,09,11,8.00
2003,03,26,09,12,7.90
2003,03,26,09,13,7.80
2003,03,26,09,14,7.80
2003,03,26,09,15,7.80
2003,03,26,09,16,7.80
2003,03,26,09,17,7.80
2003,03,26,09,18,7.70
2003,03,26,09,19,7.80
2003,03,26,09,20,7.80
2003,03,26,09,21,7.70
2003,03,26,09,22,7.80
2003,03,26,09,23,7.70
2003,03,26,09,24,7.80
2003,03,26,09,25,7.70
2003,03,26,09,26,7.80
2003,03,26,09,27,7.80
2003,03,26,09,28,7.80
2003,03,26,09,29,7.80
2003,03,26,09,30,7.90
2003,03,26,09,31,7.80
2003,03,26,09,32,7.80
2003,03,26,09,33,7.90
2003,03,26,09,34,7.90
2003,03,26,09,35,7.90
2003,03,26,09,36,8.00
2003,03,26,09,37,7.80
2003,03,26,09,38,7.80
2003,03,26,09,39,7.80
2003,03,26,09,40,7.70
2003,03,26,09,41,7.70
2003,03,26,09,42,7.70
2003,03,26,09,43,7.80
2003,03,26,09,44,7.80
2003,03,26,09,45,7.80
2003,03,26,09,46,7.80
2003,03,26,09,47,7.80
2003,03,26,09,48,7.90
2003,03,26,09,49,7.90
2003,03,26,09,50,7.90
2003,03,26,09,51,8.00
2003,03,26,09,52,8.20
2003,03,26,09,53,8.30
2003,03,26,09,54,8.30
2003,03,26,09,55,8.20
2003,03,26,09,56,8.20
2003,03,26,09,57,8.20
2003,03,26,09,58,8.20
2003,03,26,09,59,8.20
2003,03,26,10,00,8.20
2003,03,26,10,01,8.10
2003,03,26,10,02,8.20
2003,03,26,10,03,8.10
2003,03,26,10,04,8.10
2003,03,26,10,05,8.20
2003,03,26,10,06,8.30
2003,03,26,10,07,8.20
2003,03,26,10,08,8.20
2003,03,26,10,09,8.00
2003,03,26,10,10,8.10
2003,03,26,10,11,8.10
2003,03,26,10,12,8.10
2003,03,26,10,13,8.00
2003,03,26,10,14,8.00
2003,03,26,10,15,8.00
2003,03,26,10,16,8.00
2003,03,26,10,17,8.10
2003,03,26,10,18,8.20
2003,03,26,10,19,8.30
2003,03,26,10,20,8.20
2003,03,26,10,21,8.20
2003,03,26,10,22,8.30
2003,03,26,10,23,8.50
2003,03,26,10,24,8.50
2003,03,26,10,25,8.50
2003,03,26,10,26,8.50
2003,03,26,10,27,8.50
2003,03,26,10,28,8.50
2003,03,26,10,29,8.60
2003,03,26,10,30,8.60
2003,03,26,10,31,8.50
2003,03,26,10,32,8.40
2003,03,26,10,33,8.30
2003,03,26,10,34,8.20
2003,03,26,10,35,8.10
2003,03,26,10,36,8.10
2003,03,26,10,37,8.10
2003,03,26,10,38,8.10
2003,03,26,10,39,8.20
2003,03,26,10,40,8.20
2003,03,26,10,41,8.20
2003,03,26,10,42,8.20
2003,03,26,10,43,8.10
2003,03,26,10,44,8.10
2003,03,26,10,45,7.80
2003,03,26,10,46,7.90
2003,03,26,10,47,7.90
2003,03,26,10,48,7.90
2003,03,26,10,49,8.00
2003,03,26,10,50,8.10
2003,03,26,10,51,8.20
2003,03,26,10,52,8.20
2003,03,26,10,53,8.40
2003,03,26,10,54,8.40
2003,03,26,10,55,8.50
2003,03,26,10,56,8.60
2003,03,26,10,57,8.70
2003,03,26,10,58,8.80
2003,03,26,10,59,8.80
2003,03,26,11,00,9.00
2003,03,26,11,01,9.10
2003,03,26,11,02,9.20
2003,03,26,11,03,9.30
2003,03,26,11,04,9.30
2003,03,26,11,05,9.40
2003,03,26,11,06,9.60
2003,03,26,11,07,9.70
2003,03,26,11,08,9.40
2003,03,26,11,09,9.50
2003,03,26,11,10,9.60
2003,03,26,11,11,9.60
2003,03,26,11,12,9.60
2003,03,26,11,13,9.70
2003,03,26,11,14,9.60
2003,03,26,11,15,9.70
2003,03,26,11,16,9.60
2003,03,26,11,17,9.70
2003,03,26,11,18,9.70
2003,03,26,11,19,9.70
2003,03,26,11,20,9.80
2003,03,26,11,21,9.90
2003,03,26,11,22,9.80
2003,03,26,11,23,9.90
2003,03,26,11,24,9.80
2003,03,26,11,25,9.60
2003,03,26,11,26,9.40
2003,03,26,11,27,9.30
2003,03,26,11,28,9.20
2003,03,26,11,29,9.20
2003,03,26,11,30,9.30
2003,03,26,11,31,9.30
2003,03,26,11,32,9.30
2003,03,26,11,33,9.30
2003,03,26,11,34,9.20
2003,03,26,11,35,9.30
2003,03,26,11,36,9.30
2003,03,26,11,37,9.30
2003,03,26,11,38,9.30
2003,03,26,11,39,9.30
2003,03,26,11,40,9.20
2003,03,26,11,41,9.20
2003,03,26,11,42,9.20
2003,03,26,11,43,9.30
2003,03,26,11,44,9.40
2003,03,26,11,45,9.40
2003,03,26,11,46,9.40
2003,03,26,11,47,9.20
2003,03,26,11,48,9.30
2003,03,26,11,49,9.30
2003,03,26,11,50,9.30
2003,03,26,11,51,9.20
2003,03,26,11,52,9.20
2003,03,26,11,53,9.20
2003,03,26,11,54,9.20
2003,03,26,11,55,9.10
2003,03,26,11,56,9.00
2003,03,26,11,57,9.00
2003,03,26,11,58,9.20
2003,03,26,11,59,9.20
2003,03,26,12,00,9.40
2003,03,26,12,01,9.50
2003,03,26,12,02,9.60
2003,03,26,12,03,9.60
2003,03,26,12,04,9.60
2003,03,26,12,05,9.50
2003,03,26,12,06,9.70
2003,03,26,12,07,9.90
2003,03,26,12,08,9.90
2003,03,26,12,09,10.10
2003,03,26,12,10,10.20
2003,03,26,12,11,10.20
2003,03,26,12,12,10.40
2003,03,26,12,13,10.50
2003,03,26,12,14,10.70
2003,03,26,12,15,10.90
2003,03,26,12,16,10.90
2003,03,26,12,17,11.00
2003,03,26,12,18,11.00
2003,03,26,12,19,11.00
2003,03,26,12,20,11.10
2003,03,26,12,21,11.00
2003,03,26,12,22,11.10
2003,03,26,12,23,11.20
2003,03,26,12,24,11.40
2003,03,26,12,25,11.50
2003,03,26,12,26,11.40
2003,03,26,12,27,11.40
2003,03,26,12,28,11.30
2003,03,26,12,29,11.40
2003,03,26,12,30,11.30
2003,03,26,12,31,11.20
2003,03,26,12,32,11.10
2003,03,26,12,33,11.10
2003,03,26,12,34,11.10
2003,03,26,12,35,11.10
2003,03,26,12,36,11.00
2003,03,26,12,37,11.10
2003,03,26,12,38,11.20
2003,03,26,12,39,11.20
2003,03,26,12,40,11.10
2003,03,26,12,41,10.90
2003,03,26,12,42,10.80
2003,03,26,12,43,10.60
2003,03,26,12,44,10.50
2003,03,26,12,45,10.40
2003,03,26,12,46,10.40
2003,03,26,12,47,10.40
2003,03,26,12,48,10.50
2003,03,26,12,49,10.50
2003,03,26,12,50,10.60
2003,03,26,12,51,10.60
2003,03,26,12,52,10.50
2003,03,26,12,53,10.70
2003,03,26,12,54,11.00
2003,03,26,12,55,11.10
2003,03,26,12,56,11.00
2003,03,26,12,57,10.90
2003,03,26,12,58,10.70
2003,03,26,12,59,10.70
2003,03,26,13,00,10.80
2003,03,26,13,01,11.00
2003,03,26,13,02,11.10
2003,03,26,13,03,11.30
2003,03,26,13,04,11.20
2003,03,26,13,05,11.20
2003,03,26,13,06,11.30
2003,03,26,13,07,11.40
2003,03,26,13,08,11.40
2003,03,26,13,09,11.60
2003,03,26,13,10,11.70
2003,03,26,13,11,11.80
2003,03,26,13,12,11.70
2003,03,26,13,13,11.60
2003,03,26,13,14,11.40
2003,03,26,13,15,11.20
2003,03,26,13,16,11.20
2003,03,26,13,17,11.10
2003,03,26,13,18,10.90
2003,03,26,13,19,10.90
2003,03,26,13,20,10.90
2003,03,26,13,21,10.90
2003,03,26,13,22,10.90
2003,03,26,13,23,11.10
2003,03,26,13,24,11.20
2003,03,26,13,25,11.20
2003,03,26,13,26,11.30
2003,03,26,13,27,11.40
2003,03,26,13,28,11.60
2003,03,26,13,29,11.60
2003,03,26,13,30,11.60
2003,03,26,13,31,11.70
2003,03,26,13,32,11.70
2003,03,26,13,33,11.60
2003,03,26,13,34,11.60
2003,03,26,13,35,11.80
2003,03,26,13,36,11.90
2003,03,26,13,37,11.80
2003,03,26,13,38,11.70
2003,03,26,13,39,11.70
2003,03,26,13,40,11.70
2003,03,26,13,41,11.80
2003,03,26,13,42,11.80
2003,03,26,13,43,11.90
2003,03,26,13,44,11.80
2003,03,26,13,45,11.90
2003,03,26,13,46,11.90
2003,03,26,13,47,12.00
2003,03,26,13,48,12.00
2003,03,26,13,49,12.00
2003,03,26,13,50,12.10
2003,03,26,13,51,12.10
2003,03,26,13,52,12.10
2003,03,26,13,53,12.10
2003,03,26,13,54,11.90
2003,03,26,13,55,11.80
2003,03,26,13,56,11.80
2003,03,26,13,57,11.90
2003,03,26,13,58,12.10
2003,03,26,13,59,12.20
2003,03,26,14,00,12.10
2003,03,26,14,01,12.00
2003,03,26,14,02,11.90
2003,03,26,14,03,11.90
2003,03,26,14,04,12.00
2003,03,26,14,05,12.00
2003,03,26,14,06,12.10
2003,03,26,14,07,12.00
2003,03,26,14,08,11.90
2003,03,26,14,09,11.80
2003,03,26,14,10,11.80
2003,03,26,14,11,11.80
2003,03,26,14,12,11.70
2003,03,26,14,13,11.70
2003,03,26,14,14,11.70
2003,03,26,14,15,11.70
2003,03,26,14,16,11.70
2003,03,26,14,17,11.70
2003,03,26,14,18,11.80
2003,03,26,14,19,12.00
2003,03,26,14,20,12.00
2003,03,26,14,21,12.10
2003,03,26,14,22,11.90
2003,03,26,14,23,11.80
2003,03,26,14,24,11.70
2003,03,26,14,25,11.70
2003,03,26,14,26,11.70
2003,03,26,14,27,11.80
2003,03,26,14,28,11.80
2003,03,26,14,29,11.80
2003,03,26,14,30,11.90
2003,03,26,14,31,11.90
2003,03,26,14,32,11.80
2003,03,26,14,33,11.80
2003,03,26,14,34,11.80
2003,03,26,14,35,11.70
2003,03,26,14,36,11.70
2003,03,26,14,37,11.70
2003,03,26,14,38,11.70
2003,03,26,14,39,11.60
2003,03,26,14,40,11.60
2003,03,26,14,41,11.70
2003,03,26,14,42,11.80
2003,03,26,14,43,11.80
2003,03,26,14,44,11.90
2003,03,26,14,45,11.90
2003,03,26,14,46,11.90
2003,03,26,14,47,11.80
2003,03,26,14,48,11.80
2003,03,26,14,49,11.80
2003,03,26,14,50,11.70
2003,03,26,14,51,11.60
2003,03,26,14,52,11.60
2003,03,26,14,53,11.50
2003,03,26,14,54,11.40
2003,03,26,14,55,11.50
2003,03,26,14,56,11.50
2003,03,26,14,57,11.60
2003,03,26,14,58,11.80
2003,03,26,14,59,11.70
2003,03,26,15,00,11.60
2003,03,26,15,01,11.60
2003,03,26,15,02,11.60
2003,03,26,15,03,11.40
2003,03,26,15,04,11.40
2003,03,26,15,05,11.00
2003,03,26,15,06,10.90
2003,03,26,15,07,10.80
2003,03,26,15,08,10.60
2003,03,26,15,09,10.50
2003,03,26,15,10,10.50
2003,03,26,15,11,10.60
2003,03,26,15,12,10.50
2003,03,26,15,13,10.50
2003,03,26,15,14,10.40
2003,03,26,15,15,10.20
2003,03,26,15,16,10.10
2003,03,26,15,17,10.10
2003,03,26,15,18,10.10
2003,03,26,15,19,10.10
2003,03,26,15,20,10.10
2003,03,26,15,21,10.00
2003,03,26,15,22,10.10
2003,03,26,15,23,10.10
2003,03,26,15,24,10.10
2003,03,26,15,25,10.10
2003,03,26,15,26,10.10
2003,03,26,15,27,10.00
2003,03,26,15,28,10.00
2003,03,26,15,29,10.00
2003,03,26,15,30,9.90
2003,03,26,15,31,10.10
2003,03,26,15,32,9.90
2003,03,26,15,33,10.00
2003,03,26,15,34,10.00
2003,03,26,15,35,10.10
2003,03,26,15,36,10.10
2003,03,26,15,37,10.10
2003,03,26,15,38,10.00
2003,03,26,15,39,9.80
2003,03,26,15,40,9.60
2003,03,26,15,41,9.40
2003,03,26,15,42,9.10
2003,03,26,15,43,8.90
2003,03,26,15,44,8.70
2003,03,26,15,45,8.60
2003,03,26,15,46,8.50
2003,03,26,15,47,8.40
2003,03,26,15,48,8.40
2003,03,26,15,49,8.40
2003,03,26,15,50,8.30
2003,03,26,15,51,8.40
2003,03,26,15,52,8.40
2003,03,26,15,53,8.40
2003,03,26,15,54,8.40
2003,03,26,15,55,8.50
2003,03,26,15,56,8.50
2003,03,26,15,57,8.70
2003,03,26,15,58,8.70
2003,03,26,15,59,8.80
2003,03,26,16,00,8.80
2003,03,26,16,01,8.70
2003,03,26,16,02,8.80
2003,03,26,16,03,8.80
2003,03,26,16,04,8.90
2003,03,26,16,05,9.00
2003,03,26,16,06,9.10
2003,03,26,16,07,9.10
2003,03,26,16,08,9.20
2003,03,26,16,09,9.10
2003,03,26,16,10,9.00
2003,03,26,16,11,9.10
2003,03,26,16,12,9.10
2003,03,26,16,13,9.00
2003,03,26,16,14,9.00
2003,03,26,16,15,9.10
2003,03,26,16,16,9.20
2003,03,26,16,17,9.30
2003,03,26,16,18,9.40
2003,03,26,16,19,9.30
2003,03,26,16,20,9.20
2003,03,26,16,21,9.20
2003,03,26,16,22,9.20
2003,03,26,16,23,9.30
2003,03,26,16,24,9.40
2003,03,26,16,25,9.40
2003,03,26,16,26,9.40
2003,03,26,16,27,9.40
2003,03,26,16,28,9.40
2003,03,26,16,29,9.50
2003,03,26,16,30,9.50
2003,03,26,16,31,9.50
2003,03,26,16,32,9.60
2003,03,26,16,33,9.50
2003,03,26,16,34,9.40
2003,03,26,16,35,9.40
2003,03,26,16,36,9.40
2003,03,26,16,37,9.50
2003,03,26,16,38,9.40
2003,03,26,16,39,9.50
2003,03,26,16,40,9.60
2003,03,26,16,41,9.60
2003,03,26,16,42,9.60
2003,03,26,16,43,9.70
2003,03,26,16,44,9.70
2003,03,26,16,45,9.60
2003,03,26,16,46,9.70
2003,03,26,16,47,9.70
2003,03,26,16,48,9.60
2003,03,26,16,49,9.60
2003,03,26,16,50,9.50
2003,03,26,16,51,9.50
2003,03,26,16,52,9.50
2003,03,26,16,53,9.60
2003,03,26,16,54,9.70
2003,03,26,16,55,9.70
2003,03,26,16,56,9.70
2003,03,26,16,57,9.80
2003,03,26,16,58,10.00
2003,03,26,16,59,9.90
2003,03,26,17,00,9.90
2003,03,26,17,01,9.80
2003,03,26,17,02,9.80
2003,03,26,17,03,9.80
2003,03,26,17,04,9.70
2003,03,26,17,05,9.80
2003,03,26,17,06,9.80
2003,03,26,17,07,9.80
2003,03,26,17,08,9.70
2003,03,26,17,09,9.70
2003,03,26,17,10,9.70
2003,03,26,17,11,9.40
2003,03,26,17,12,9.20
2003,03,26,17,13,9.20
2003,03,26,17,14,9.10
2003,03,26,17,15,9.10
2003,03,26,17,16,9.10
2003,03,26,17,17,9.00
2003,03,26,17,18,8.90
2003,03,26,17,19,8.90
2003,03,26,17,20,8.90
2003,03,26,17,21,8.90
2003,03,26,17,22,8.90
2003,03,26,17,23,8.90
2003,03,26,17,24,8.90
2003,03,26,17,25,8.90
2003,03,26,17,26,8.90
2003,03,26,17,27,8.90
2003,03,26,17,28,9.10
2003,03,26,17,29,9.10
2003,03,26,17,30,9.10
2003,03,26,17,31,9.10
2003,03,26,17,32,9.10
2003,03,26,17,33,9.10
2003,03,26,17,34,9.20
2003,03,26,17,35,9.10
2003,03,26,17,36,9.10
2003,03,26,17,37,9.20
2003,03,26,17,38,9.30
2003,03,26,17,39,9.20
2003,03,26,17,40,9.10
2003,03,26,17,41,9.10
2003,03,26,17,42,9.00
2003,03,26,17,43,9.10
2003,03,26,17,44,9.20
2003,03,26,17,45,9.20
2003,03,26,17,46,9.20
2003,03,26,17,47,9.20
2003,03,26,17,48,9.10
2003,03,26,17,49,9.10
2003,03,26,17,50,9.20
2003,03,26,17,51,9.20
2003,03,26,17,52,9.20
2003,03,26,17,53,9.10
2003,03,26,17,54,9.00
2003,03,26,17,55,9.00
2003,03,26,17,56,9.10
2003,03,26,17,57,9.10
2003,03,26,17,58,9.20
2003,03,26,17,59,9.10
2003,03,26,18,00,9.00
2003,03,26,18,01,9.00
2003,03,26,18,02,9.00
2003,03,26,18,03,8.90
2003,03,26,18,04,8.90
2003,03,26,18,05,8.90
2003,03,26,18,06,8.90
2003,03,26,18,07,8.90
2003,03,26,18,08,8.80
2003,03,26,18,09,8.80
2003,03,26,18,10,8.90
2003,03,26,18,11,8.90
2003,03,26,18,12,9.00
2003,03,26,18,13,9.00
2003,03,26,18,14,9.10
2003,03,26,18,15,9.00
2003,03,26,18,16,9.00
2003,03,26,18,17,9.00
2003,03,26,18,18,8.90
2003,03,26,18,19,9.00
2003,03,26,18,20,9.00
2003,03,26,18,21,9.00
2003,03,26,18,22,8.90
2003,03,26,18,23,8.90
2003,03,26,18,24,8.90
2003,03,26,18,25,8.90
2003,03,26,18,26,8.90
2003,03,26,18,27,9.00
2003,03,26,18,28,9.00
2003,03,26,18,29,8.90
2003,03,26,18,30,8.90
2003,03,26,18,31,9.00
2003,03,26,18,32,9.00
2003,03,26,18,33,9.00
2003,03,26,18,34,8.90
2003,03,26,18,35,8.90
2003,03,26,18,36,8.90
2003,03,26,18,37,8.80
2003,03,26,18,38,8.80
2003,03,26,18,39,8.80
2003,03,26,18,40,8.80
2003,03,26,18,41,8.80
2003,03,26,18,42,8.70
2003,03,26,18,43,8.70
2003,03,26,18,44,8.70
2003,03,26,18,45,8.70
2003,03,26,18,46,8.70
2003,03,26,18,47,8.80
2003,03,26,18,48,8.80
2003,03,26,18,49,8.70
2003,03,26,18,50,8.70
2003,03,26,18,51,8.70
2003,03,26,18,52,8.70
2003,03,26,18,53,8.70
2003,03,26,18,54,8.80
2003,03,26,18,55,8.80
2003,03,26,18,56,8.70
2003,03,26,18,57,8.70
2003,03,26,18,58,8.80
2003,03,26,18,59,8.80
2003,03,26,19,00,8.80
2003,03,26,19,01,8.80
2003,03,26,19,02,8.80
2003,03,26,19,03,8.70
2003,03,26,19,04,8.70
2003,03,26,19,05,8.80
2003,03,26,19,06,8.80
2003,03,26,19,07,8.90
2003,03,26,19,08,9.00
2003,03,26,19,09,9.00
2003,03,26,19,10,8.90
2003,03,26,19,11,8.90
2003,03,26,19,12,8.90
2003,03,26,19,13,8.90
2003,03,26,19,14,8.90
2003,03,26,19,15,8.90
2003,03,26,19,16,8.80
2003,03,26,19,17,8.70
2003,03,26,19,18,8.70
2003,03,26,19,19,8.70
2003,03,26,19,20,8.60
2003,03,26,19,21,8.60
2003,03,26,19,22,8.50
2003,03,26,19,23,8.40
2003,03,26,19,24,8.30
2003,03,26,19,25,8.20
2003,03,26,19,26,8.20
2003,03,26,19,27,8.30
2003,03,26,19,28,8.30
2003,03,26,19,29,8.30
2003,03,26,19,30,8.30
2003,03,26,19,31,8.30
2003,03,26,19,32,8.30
2003,03,26,19,33,8.40
2003,03,26,19,34,8.40
2003,03,26,19,35,8.40
2003,03,26,19,36,8.40
2003,03,26,19,37,8.40
2003,03,26,19,38,8.40
2003,03,26,19,39,8.40
2003,03,26,19,40,8.40
2003,03,26,19,41,8.40
2003,03,26,19,42,8.50
2003,03,26,19,43,8.60
2003,03,26,19,44,8.50
2003,03,26,19,45,8.50
2003,03,26,19,46,8.50
2003,03,26,19,47,8.50
2003,03,26,19,48,8.50
2003,03,26,19,49,8.40
2003,03,26,19,50,8.40
2003,03,26,19,51,8.30
2003,03,26,19,52,8.30
2003,03,26,19,53,8.30
2003,03,26,19,54,8.30
2003,03,26,19,55,8.20
2003,03,26,19,56,8.20
2003,03,26,19,57,8.20
2003,03,26,19,58,8.20
2003,03,26,19,59,8.20
2003,03,26,20,00,8.20
2003,03,26,20,01,8.20
2003,03,26,20,02,8.20
2003,03,26,20,03,8.30
2003,03,26,20,04,8.20
2003,03,26,20,05,8.20
2003,03,26,20,06,8.20
2003,03,26,20,07,8.20
2003,03,26,20,08,8.20
2003,03,26,20,09,8.20
2003,03,26,20,10,8.20
2003,03,26,20,11,8.10
2003,03,26,20,12,8.10
2003,03,26,20,13,8.20
2003,03,26,20,14,8.20
2003,03,26,20,15,8.20
2003,03,26,20,16,8.20
2003,03,26,20,17,8.10
2003,03,26,20,18,8.10
2003,03,26,20,19,8.10
2003,03,26,20,20,8.10
2003,03,26,20,21,8.20
2003,03,26,20,22,8.20
2003,03,26,20,23,8.10
2003,03,26,20,24,8.10
2003,03,26,20,25,8.00
2003,03,26,20,26,8.00
2003,03,26,20,27,8.10
2003,03,26,20,28,8.10
2003,03,26,20,29,8.10
2003,03,26,20,30,8.10
2003,03,26,20,31,8.10
2003,03,26,20,32,8.10
2003,03,26,20,33,8.10
2003,03,26,20,34,8.20
2003,03,26,20,35,8.20
2003,03,26,20,36,8.10
2003,03,26,20,37,8.00
2003,03,26,20,38,8.00
2003,03,26,20,39,8.00
2003,03,26,20,40,8.00
2003,03,26,20,41,8.10
2003,03,26,20,42,8.10
2003,03,26,20,43,8.00
2003,03,26,20,44,8.00
2003,03,26,20,45,8.00
2003,03,26,20,46,8.10
2003,03,26,20,47,8.20
2003,03,26,20,48,8.20
2003,03,26,20,49,8.20
2003,03,26,20,50,8.20
2003,03,26,20,51,8.10
2003,03,26,20,52,8.10
2003,03,26,20,53,8.10
2003,03,26,20,54,8.10
2003,03,26,20,55,8.00
2003,03,26,20,56,8.00
2003,03,26,20,57,8.00
2003,03,26,20,58,8.10
2003,03,26,20,59,8.20
2003,03,26,21,00,8.20
2003,03,26,21,01,8.20
2003,03,26,21,02,8.20
2003,03,26,21,03,8.20
2003,03,26,21,04,8.10
2003,03,26,21,05,8.10
2003,03,26,21,06,8.10
2003,03,26,21,07,8.20
2003,03,26,21,08,8.20
2003,03,26,21,09,8.20
2003,03,26,21,10,8.20
2003,03,26,21,11,8.20
2003,03,26,21,12,8.30
2003,03,26,21,13,8.40
2003,03,26,21,14,8.50
2003,03,26,21,15,8.50
2003,03,26,21,16,8.50
2003,03,26,21,17,8.50
2003,03,26,21,18,8.50
2003,03,26,21,19,8.50
2003,03,26,21,20,8.50
2003,03,26,21,21,8.50
2003,03,26,21,22,8.40
2003,03,26,21,23,8.30
2003,03,26,21,24,8.40
2003,03,26,21,25,8.40
2003,03,26,21,26,8.40
2003,03,26,21,27,8.30
2003,03,26,21,28,8.30
2003,03,26,21,29,8.20
2003,03,26,21,30,8.20
2003,03,26,21,31,8.10
2003,03,26,21,32,8.10
2003,03,26,21,33,8.10
2003,03,26,21,34,8.00
2003,03,26,21,35,8.00
2003,03,26,21,36,8.00
2003,03,26,21,37,7.90
2003,03,26,21,38,8.00
2003,03,26,21,39,8.00
2003,03,26,21,40,8.00
2003,03,26,21,41,8.00
2003,03,26,21,42,8.00
2003,03,26,21,43,7.90
2003,03,26,21,44,7.90
2003,03,26,21,45,8.00
2003,03,26,21,46,8.00
2003,03,26,21,47,8.10
2003,03,26,21,48,8.00
2003,03,26,21,49,8.00
2003,03,26,21,50,7.90
2003,03,26,21,51,8.00
2003,03,26,21,52,8.00
2003,03,26,21,53,8.10
2003,03,26,21,54,8.20
2003,03,26,21,55,8.10
2003,03,26,21,56,8.10
2003,03,26,21,57,8.10
2003,03,26,21,58,8.10
2003,03,26,21,59,8.10
2003,03,26,22,00,8.10
2003,03,26,22,01,8.10
2003,03,26,22,02,8.10
2003,03,26,22,03,8.10
2003,03,26,22,04,8.20
2003,03,26,22,05,8.20
2003,03,26,22,06,8.20
2003,03,26,22,07,8.20
2003,03,26,22,08,8.10
2003,03,26,22,09,8.10
2003,03,26,22,10,8.10
2003,03,26,22,11,8.20
2003,03,26,22,12,8.20
2003,03,26,22,13,8.20
2003,03,26,22,14,8.10
2003,03,26,22,15,8.00
2003,03,26,22,16,8.00
2003,03,26,22,17,8.00
2003,03,26,22,18,8.10
2003,03,26,22,19,8.10
2003,03,26,22,20,8.20
2003,03,26,22,21,8.10
2003,03,26,22,22,8.00
2003,03,26,22,23,8.00
2003,03,26,22,24,8.10
2003,03,26,22,25,8.10
2003,03,26,22,26,8.10
2003,03,26,22,27,8.00
2003,03,26,22,28,7.90
2003,03,26,22,29,7.90
2003,03,26,22,30,7.90
2003,03,26,22,31,7.90
2003,03,26,22,32,7.90
2003,03,26,22,33,7.90
2003,03,26,22,34,7.80
2003,03,26,22,35,7.80
2003,03,26,22,36,7.80
2003,03,26,22,37,7.90
2003,03,26,22,38,7.80
2003,03,26,22,39,7.90
2003,03,26,22,40,7.90
2003,03,26,22,41,7.90
2003,03,26,22,42,7.90
2003,03,26,22,43,7.90
2003,03,26,22,44,7.90
2003,03,26,22,45,7.90
2003,03,26,22,46,7.80
2003,03,26,22,47,7.80
2003,03,26,22,48,7.80
2003,03,26,22,49,7.70
2003,03,26,22,50,7.70
2003,03,26,22,51,7.80
2003,03,26,22,52,7.80
2003,03,26,22,53,7.80
2003,03,26,22,54,7.70
2003,03,26,22,55,7.60
2003,03,26,22,56,7.60
2003,03,26,22,57,7.50
2003,03,26,22,58,7.50
2003,03,26,22,59,7.60
2003,03,26,23,00,7.70
2003,03,26,23,01,7.60
2003,03,26,23,02,7.60
2003,03,26,23,03,7.50
2003,03,26,23,04,7.60
2003,03,26,23,05,7.60
2003,03,26,23,06,7.50
2003,03,26,23,07,7.50
2003,03,26,23,08,7.50
2003,03,26,23,09,7.50
2003,03,26,23,10,7.50
2003,03,26,23,11,7.50
2003,03,26,23,12,7.60
2003,03,26,23,13,7.70
2003,03,26,23,14,7.70
2003,03,26,23,15,7.80
2003,03,26,23,16,7.80
2003,03,26,23,17,7.70
2003,03,26,23,18,7.70
2003,03,26,23,19,7.80
2003,03,26,23,20,7.80
2003,03,26,23,21,7.80
2003,03,26,23,22,7.70
2003,03,26,23,23,7.60
2003,03,26,23,24,7.50
2003,03,26,23,25,7.50
2003,03,26,23,26,7.50
2003,03,26,23,27,7.60
2003,03,26,23,28,7.60
2003,03,26,23,29,7.60
2003,03,26,23,30,7.60
2003,03,26,23,31,7.60
2003,03,26,23,32,7.50
2003,03,26,23,33,7.60
2003,03,26,23,34,7.60
2003,03,26,23,35,7.60
2003,03,26,23,36,7.60
2003,03,26,23,37,7.50
2003,03,26,23,38,7.50
2003,03,26,23,39,7.50
2003,03,26,23,40,7.60
2003,03,26,23,41,7.60
2003,03,26,23,42,7.60
2003,03,26,23,43,7.50
2003,03,26,23,44,7.50
2003,03,26,23,45,7.50
2003,03,26,23,46,7.50
2003,03,26,23,47,7.50
2003,03,26,23,48,7.50
2003,03,26,23,49,7.40
2003,03,26,23,50,7.30
2003,03,26,23,51,7.30
2003,03,26,23,52,7.40
2003,03,26,23,53,7.40
2003,03,26,23,54,7.40
2003,03,26,23,55,7.50
2003,03,26,23,56,7.40
2003,03,26,23,57,7.40
2003,03,26,23,58,7.30
2003,03,26,23,59,7.50
